GMT,Max TemperatureF,Mean TemperatureF,Min TemperatureF,Max Dew PointF,MeanDew PointF,Min DewpointF,Max Humidity, Mean Humidity, Min Humidity, Max Sea Level PressureIn, Mean Sea Level PressureIn, Min Sea Level PressureIn, Max VisibilityMiles, Mean VisibilityMiles, Min VisibilityMiles, Max Wind SpeedMPH, Mean Wind SpeedMPH, Max Gust SpeedMPH,PrecipitationIn, CloudCover, Events, WindDirDegrees
2013-1-1,44,40,35,43,38,34,100,89,76,30.15,29.90,29.65,16,7,6,16,9,,0.00,5,Rain,253
2013-1-2,53,47,41,52,50,43,100,99,93,30.36,30.21,30.12,19,6,1,18,10,,0.00,6,Fog-Rain,237
2013-1-3,51,49,47,52,49,46,100,99,93,30.60,30.48,30.36,19,5,0,17,11,,0.02,6,Fog-Rain,224
2013-1-4,49,48,47,50,48,46,100,99,89,30.60,30.53,30.45,11,3,0,16,12,,0.04,7,Fog-Rain,186
2013-1-5,51,49,47,52,50,48,100,100,94,30.47,30.41,30.36,7,4,0,22,13,32,0.04,8,Fog-Rain,192
2013-1-6,50,48,47,50,49,48,100,100,100,30.45,30.30,30.18,12,4,0,20,11,28,0.02,8,Fog-Rain,180
2013-1-7,51,50,48,52,50,48,100,100,98,30.21,30.07,30.01,3,1,0,20,15,32,0.28,7,Fog-Rain,186
2013-1-8,51,45,39,52,46,39,100,93,76,30.27,30.15,30.01,16,5,0,21,13,,0.02,4,Fog-Rain,295
2013-1-9,45,40,36,45,40,37,100,94,81,30.27,30.14,30.01,6,4,0,10,5,,0.00,4,Fog,104
2013-1-10,48,42,37,46,41,37,100,89,66,30.06,29.97,29.89,19,7,6,18,10,,0.02,3,Rain,219
2013-1-11,49,44,38,48,44,37,100,95,82,30.09,29.88,29.65,16,5,0,18,8,,0.00,6,Fog-Rain,159
2013-1-12,45,41,37,43,41,36,100,94,81,30.01,29.76,29.62,16,7,4,18,10,,0.08,5,Rain,51
2013-1-13,44,38,33,43,37,34,100,94,86,30.22,30.15,30.04,19,7,6,14,9,,0.00,4,,298
2013-1-14,45,42,39,43,40,34,100,90,80,30.19,30.04,29.98,12,6,3,18,13,,0.08,5,Rain,299
2013-1-15,43,40,36,43,38,34,100,91,69,30.01,29.87,29.62,19,7,3,16,9,,0.12,5,Rain,221
2013-1-16,45,43,41,45,43,41,100,100,93,29.86,29.75,29.62,9,4,0,17,11,,0.08,7,Fog-Rain,155
2013-1-17,48,44,41,48,44,39,100,98,87,29.88,29.67,29.30,12,6,1,30,8,45,0.12,6,Rain,167
2013-1-18,46,40,35,48,40,35,100,91,76,29.33,29.28,29.24,16,6,1,18,11,,0.00,3,Rain,272
2013-1-19,39,37,33,39,36,32,100,98,87,29.53,29.42,29.27,19,7,4,13,10,,0.00,6,Rain,14
2013-1-20,37,35,33,36,33,30,100,92,81,29.55,29.38,29.27,16,6,3,20,10,,0.04,5,Rain-Snow,86
2013-1-21,39,36,32,36,33,31,100,95,77,29.44,29.34,29.30,19,5,0,13,7,,0.16,5,Fog-Rain-Snow,308
2013-1-22,39,34,28,32,31,28,100,90,70,29.71,29.52,29.33,19,7,6,13,7,,0.00,2,,331
2013-1-23,39,26,14,39,35,30,100,94,83,29.77,29.67,29.59,19,6,4,15,7,,0.31,6,Rain,90
2013-1-24,42,38,34,43,38,32,100,95,87,29.99,29.90,29.77,12,6,3,16,8,28,0.03,6,Rain,120
2013-1-25,48,45,42,48,44,37,100,95,76,29.87,29.60,29.36,19,4,0,28,16,39,1.02,6,Fog-Rain,200
2013-1-26,51,43,35,52,44,34,100,95,69,29.77,29.54,29.09,16,5,0,36,16,59,0.20,6,Fog-Rain,211
2013-1-27,44,38,33,47,36,32,100,89,66,29.56,29.31,29.09,19,7,6,31,18,54,0.12,4,Rain,239
2013-1-28,51,42,33,50,41,32,100,87,74,29.62,29.41,29.21,16,6,1,40,18,61,0.35,5,Rain,223
2013-1-29,52,48,44,52,47,41,100,97,81,29.52,29.38,29.24,16,5,0,36,15,53,0.28,6,Fog-Rain,211
2013-1-30,49,46,42,46,40,34,100,81,54,29.90,29.68,29.42,19,7,6,32,18,50,0.20,4,Rain,229
2013-1-31,49,44,39,45,40,36,100,84,71,29.88,29.78,29.62,19,6,4,40,23,54,0.08,5,Rain-Thunderstorm,243